PRAETORIAN SDA_610

Last updated on Sat Oct 11 2025 00:02:05 GMT+0000 (Coordinated Universal Time)

1 65573U 25203J 25283.40643073 .00000047 00000+0 31167-4 0 9997 2 65573 81.2987 242.1603 0007280 144.0192 216.1456 13.84649715 4130
UTC large
Height (km)
Speed (km/s)
/
Latitude / Longitude
Inclination (degrees)
Orbital Period (minutes)
Azimuth
Elevation
Range (km)
Doppler Factor

Next 0 passes for location: London (51.5072 / 0.1276)

Sorry there are no passes over London.
PRAETORIAN SDA_610